This demonstration page uses our WeatherBlox Daily Observations layout. Learn more.

Left ArrowRight Arrow

Hourly Observations for March 11, 2018

Temp ( °F °C ) Dew Point ( °F °C ) Humidity (%) Winds ( mph kmh ) Pressure ( in mb ) Visibility ( mi km ) Precip ( " mm )
12:54 am 00:54 Cloudy 36 2.2 31 -0.6 82 82 NW 17 28 30.10 1019 8 13 0.00 0.00
1:47 am 01:47 Cloudy 35 1.7 29 -1.7 78 78 NNW 23 37 30.15 1021 8 13 0.00 0.00
1:54 am 01:54 Cloudy 35 1.7 29 -1.7 78 78 NNW 24 39 30.11 1020 8 13 0.00 0.00
3:28 am 03:28 Cloudy 34 1.1 29 -1.7 82 82 NNW 23 37 30.15 1021 7 11 0.00 0.00
3:42 am 03:42 Windy with Snow Likely 33 0.6 30 -1.1 89 89 NNW 21 33 30.15 1021 4 6 0.00 0.03
3:46 am 03:46 Cloudy with Light Snow 33 0.6 30 -1.1 89 89 NNW 16 26 30.15 1021 2 3 0.00 0.03
3:54 am 03:54 Windy with Snow Likely 33 0.6 31 -0.6 92 92 NNW 20 31 30.11 1020 2 2 0.00 0.03
4:13 am 04:13 Windy with Snow Likely 32 0 30 -1.1 92 92 NNW 21 33 30.18 1022 1 2 0.00 0.03
4:29 am 04:29 Cloudy with Light Snow 32 0 30 -1.1 92 92 NNW 18 30 30.18 1022 1 2 0.01 0.25
4:46 am 04:46 Windy with Snow Likely 32 0 30 -1.1 92 92 NNW 20 31 30.18 1022 3 5 0.01 0.25
4:54 am 04:54 Windy with Snow Likely 32 0 29 -1.7 88 88 NNW 20 31 30.14 1021 3 5 0.01 0.25
5:45 am 05:45 Windy with Snow Likely 32 0 28 -2.2 85 85 NNW 24 39 30.21 1023 4 6 0.00 0.03
5:54 am 05:54 Cloudy with Mist and Fog 32 0 28 -2.2 85 85 NNW 23 37 30.17 1022 5 8 0.00 0.03
6:12 am 06:12 Cloudy with Mist and Fog 32 0 28 -2.2 85 85 NNW 24 39 30.21 1023 6 10 0.00 0.00
6:54 am 06:54 Cloudy 32 0 28 -2.2 85 85 NNW 21 33 30.21 1023 7 11 0.00 0.00
7:54 am 07:54 Cloudy 32 0 28 -2.2 85 85 N 23 37 30.24 1024 7 11 0.00 0.00
8:54 am 08:54 Cloudy with Haze 32 0 27 -2.8 82 82 N 24 39 30.28 1025 6 10 0.00 0.00
9:54 am 09:54 Cloudy with Mist and Fog 32 0 28 -2.2 85 85 N 21 33 30.30 1026 5 8 0.00 0.00
10:54 am 10:54 Cloudy 32 0 27 -2.8 82 82 N 23 37 30.33 1027 7 11 0.00 0.00
11:54 am 11:54 Cloudy with Haze 32 0 27 -2.8 82 82 NNW 18 30 30.36 1028 5 8 0.00 0.00
12:54 pm 12:54 Cloudy with Haze 32 0 27 -2.8 82 82 N 22 35 30.38 1029 5 8 0.00 0.00
1:54 pm 13:54 Cloudy with Haze 33 0.6 27 -2.8 78 78 NNW 20 31 30.38 1029 5 8 0.00 0.00
2:54 pm 14:54 Cloudy with Haze 33 0.6 27 -2.8 78 78 N 18 30 30.39 1029 6 10 0.00 0.00
3:54 pm 15:54 Cloudy with Haze 33 0.6 27 -2.8 78 78 N 16 26 30.39 1029 6 10 0.00 0.00
4:54 pm 16:54 Cloudy with Haze 33 0.6 26 -3.3 75 75 N 17 28 30.40 1029 6 10 0.00 0.00
5:54 pm 17:54 Cloudy 32 0 26 -3.3 79 79 NNW 15 24 30.40 1030 7 11 0.00 0.00
6:54 pm 18:54 Cloudy 32 0 26 -3.3 79 79 NNW 14 22 30.41 1030 8 13 0.00 0.00
7:04 pm 19:04 Cloudy 32 0 26 -3.3 79 79 NNW 15 24 30.45 1031 8 13 0.00 0.00
7:54 pm 19:54 Cloudy 32 0 25 -3.9 75 75 NNW 14 22 30.42 1030 10 16 0.00 0.00
8:54 pm 20:54 Cloudy 31 -0.6 25 -3.9 79 79 N 14 22 30.44 1031 10 16 0.00 0.00
9:54 pm 21:54 Cloudy 32 0 25 -3.9 75 75 NNW 13 20 30.44 1031 10 16 0.00 0.00
10:54 pm 22:54 Cloudy 32 0 25 -3.9 75 75 NNW 12 19 30.45 1031 10 16 0.00 0.00
11:54 pm 23:54 Cloudy 32 0 25 -3.9 75 75 NNW 9 15 30.44 1031 10 16 0.00 0.00

Powered by AerisWeather